DW8241 Weather Reports


Display with metric or nautical units.
time (UTC)temp
F
wind
direction
speed
MPH
gust
MPH
rain 1hr
in
rain 24hr
in
rain mn
in
humidity
%
barometer
mb
20260507060054 26 159 0.0 0.0 0.00 0.00 0.00 82 1012.6
20260507054549 27 159 0.0 0.0 0.00 0.00 0.00 80 1012.7
20260507053046 29 159 0.0 0.0 0.00 0.00 0.00 79 1012.8
20260507051544 29 165 0.0 0.0 0.00 0.00 0.00 78 1012.9
20260507050038 31 164 0.0 0.0 0.00 0.00 0.00 75 1013.1
20260507044548 33 164 0.0 0.0 0.00 0.00 0.00 72 1013.2
20260507043035 33 152 0.0 0.0 0.00 0.00 0.00 74 1013.3
20260507041534 31 216 0.0 0.0 0.00 0.00 0.00 75 1013.4
20260507040041 31 55 0.0 0.0 0.00 0.00 0.00 78 1013.6
20260507034540 31 55 0.0 0.0 0.00 0.00 0.00 76 1013.7
20260507033041 32 55 0.0 0.0 0.00 0.00 0.00 76 1014.0
20260507031544 33 55 0.0 0.0 0.00 0.00 0.00 75 1014.0
20260507030030 33 55 0.0 0.0 0.00 0.00 0.00 75 1014.1
20260507024526 35 55 0.0 0.0 0.00 0.00 0.00 71 1014.1
20260507023026 37 55 0.0 0.0 0.00 0.00 0.00 69 1014.2
20260507021525 39 55 0.0 0.0 0.00 0.00 0.00 67 1014.2
20260507020026 40 55 0.0 0.0 0.00 0.00 0.00 65 1014.1
20260507014525 41 55 0.0 0.0 0.00 0.00 0.00 60 1014.2
20260507013032 42 55 0.0 0.0 0.00 0.00 0.00 60 1014.3
20260507011530 43 54 0.0 0.0 0.00 0.00 0.00 59 1014.3
20260507010022 44 55 0.0 0.0 0.00 0.00 0.00 58 1014.3
20260507004520 45 323 0.0 0.0 0.00 0.00 0.00 54 1014.4
20260507003019 45 15 0.0 0.0 0.00 0.00 0.00 55 1014.5
20260507001525 45 312 0.0 2.0 0.00 0.00 0.00 55 1014.7
20260507000017 45 328 0.0 0.0 0.00 0.00 0.00 54 1014.7
20260506234514 45 326 0.0 0.0 0.00 0.00 0.00 54 1014.9
20260506233014 45 321 0.0 0.0 0.00 0.00 0.00 54 1014.9
20260506231512 45 319 0.0 0.0 0.00 0.00 0.00 54 1014.9
20260506230010 45 322 1.0 9.0 0.00 0.00 0.00 53 1015.0
20260506224511 45 327 2.0 12.0 0.00 0.00 0.00 54 1015.0
20260506223016 45 316 4.0 12.0 0.00 0.00 0.00 55 1015.1
20260506221508 45 304 8.0 14.0 0.00 0.00 0.00 55 1015.1
20260506220007 45 307 2.0 11.0 0.00 0.00 0.00 54 1015.2
20260506214505 46 291 7.0 13.0 0.00 0.00 0.00 53 1015.3
20260506213002 45 303 1.0 11.0 0.00 0.00 0.00 54 1015.4
20260506211501 44 263 0.0 11.0 0.00 0.00 0.00 54 1015.6
20260506210100 44 330 5.0 11.0 0.00 0.00 0.00 54 1015.8
20260506204600 45 320 6.0 12.0 0.00 0.00 0.00 52 1015.8
20260506203056 44 314 2.0 14.0 0.00 0.00 0.00 54 1016.0
20260506201555 44 318 7.0 13.0 0.00 0.00 0.00 53 1016.2
20260506200049 44 294 0.0 11.0 0.00 0.00 0.00 54 1016.2
20260506194547 44 302 0.0 0.0 0.00 0.00 0.00 54 1016.4
20260506193045 43 311 0.0 11.0 0.00 0.00 0.00 56 1016.6
20260506191544 43 303 0.0 0.0 0.00 0.00 0.00 55 1016.6
20260506190043 43 293 0.0 11.0 0.00 0.00 0.00 55 1016.7
20260506184546 43 323 4.0 12.0 0.00 0.00 0.00 56 1016.8
20260506183038 42 294 0.0 0.0 0.00 0.00 0.00 59 1016.9
20260506181535 42 328 2.0 11.0 0.00 0.00 0.00 59 1017.2
20260506180034 41 308 0.0 12.0 0.00 0.00 0.00 60 1017.2
20260506174532 42 289 3.0 11.0 0.00 0.00 0.00 57 1017.3
20260506173040 42 298 7.0 12.0 0.00 0.00 0.00 59 1017.4
20260506171530 42 302 0.0 9.0 0.00 0.00 0.00 58 1017.6
20260506170029 41 318 4.0 12.0 0.00 0.00 0.00 61 1017.7
20260506164525 41 323 6.0 12.0 0.00 0.00 0.00 62 1017.9
20260506163031 40 325 0.0 11.0 0.00 0.00 0.00 63 1018.1
20260506161523 40 320 0.0 0.0 0.00 0.00 0.00 63 1018.2
20260506160021 39 299 0.0 0.0 0.00 0.00 0.00 65 1018.2
20260506154521 39 317 0.0 7.0 0.00 0.00 0.00 65 1018.3
20260506153020 40 343 0.0 4.0 0.00 0.00 0.00 67 1018.4
20260506151517 39 349 0.0 1.0 0.00 0.00 0.00 69 1018.4
20260506150014 38 353 0.0 11.0 0.00 0.00 0.00 69 1018.6
20260506144511 38 305 0.0 12.0 0.00 0.00 0.00 72 1018.7
20260506143016 37 358 0.0 0.0 0.00 0.00 0.00 75 1018.9
20260506141507 36 355 0.0 0.0 0.00 0.00 0.00 76 1018.9
20260506140004 36 348 0.0 0.0 0.00 0.00 0.00 77 1018.9
20260506134503 35 328 0.0 1.0 0.00 0.00 0.00 77 1018.9
20260506133100 35 343 0.0 2.0 0.00 0.00 0.00 78 1018.9
20260506131602 34 354 0.0 0.0 0.00 0.00 0.00 77 1018.8
20260506130126 34 17 0.0 0.0 0.00 0.00 0.00 77 1018.7
20260506124559 34 352 3.0 8.0 0.00 0.00 0.00 75 1018.7
20260506123052 33 304 0.0 0.0 0.00 0.00 0.00 76 1018.6
20260506121550 32 304 0.0 0.0 0.00 0.00 0.00 79 1018.4
20260506120048 31 316 0.0 0.0 0.00 0.00 0.00 80 1018.2
20260506114547 30 321 0.0 0.0 0.00 0.00 0.00 79 1018.1
20260506113053 30 295 0.0 0.0 0.00 0.00 0.00 80 1018.0
20260506111544 29 269 0.0 0.0 0.00 0.00 0.00 79 1017.9
20260506110052 30 279 0.0 0.0 0.00 0.00 0.00 79 1017.8
20260506104548 30 302 0.0 0.0 0.00 0.00 0.00 78 1017.6
20260506103047 31 309 0.0 0.0 0.00 0.00 0.00 78 1017.6
20260506101549 31 317 0.0 0.0 0.00 0.00 0.00 78 1017.7
20260506100052 32 323 0.0 0.0 0.00 0.00 0.00 76 1017.7
20260506094532 33 328 0.0 0.0 0.00 0.00 0.00 75 1017.6
20260506093039 33 335 0.0 0.0 0.00 0.00 0.00 75 1017.6
20260506091534 33 305 0.0 0.0 0.00 0.00 0.00 76 1017.6
20260506090028 33 327 0.0 0.0 0.00 0.00 0.00 73 1017.6
20260506084527 33 325 0.0 0.0 0.00 0.00 0.00 74 1017.5
20260506083025 33 335 0.0 0.0 0.00 0.00 0.00 74 1017.4
20260506081532 34 311 0.0 0.0 0.00 0.00 0.00 72 1017.5
20260506073034 34 333 0.0 0.0 0.00 0.00 0.00 70 1017.4
20260506071519 34 34 0.0 0.0 0.00 0.00 0.00 71 1017.4
20260506061512 34 348 0.0 0.0 0.00 0.00 0.00 71 1017.7